Home   Weather   St. Veit an der Glan   Past weeks

Flag for Austria Past Weather in St. Veit an der Glan, Carinthia, Austria — Yesterday and Last 2 Weeks

43 °F

Low clouds.

Feels Like: N/A
Forecast: 32 / 47 °F
Wind: N/A

Location: Klagenfurt-Flughafen

Current Time: Oct 20, 2016 at 9:42:36 PM

Latest Report: Oct 20, 2016 at 9:00 PM

Visibility: 11 mi

Pressure: 30.04 "Hg

Humidity: 94%

Dew Point: 41 °F

Location of St. Veit an der GlanLocation

Past Weather in St. Veit an der Glan — Graph


St. Veit an der Glan Temperature Yesterday

Maximum temperature yesterday: 54 °F (at 5:00 PM)
Minimum temperature yesterday: 46 °F (at 10:00 PM)
Average temperature yesterday: 50 °F

High & Low Weather Summary for the Past Weeks

High62 °F (Oct 16, 5:00 PM)97% (Oct 15, 5:00 AM)30.30 "Hg (Oct 15, 5:00 AM)
Low31 °F (Oct 13, 7:00 AM)34% (Oct 6, 2:00 PM)29.92 "Hg (Oct 6, 5:00 PM)
Average48 °F84%30.10 "Hg
* Reported Oct 5 8:00 PM — Oct 20 8:00 PM, St. Veit an der Glan, Weather by CustomWeather, © 2016

Note: Actual official high and low records may vary slightly from our data, if they occured in-between our weather recording intervals... More about our weather records


St. Veit an der Glan Weather History for the Previous 24 Hours

Scroll right to see more
Time TempWeatherWind HumidityBarometerVisibility
8:00 PM
Thu, Oct 20
43 °FLow clouds.N/A94%30.05 "Hg14 mi
7:00 PM43 °FLow clouds.N/A93%30.06 "Hg28 mi
6:00 PM43 °FLight rain. Low clouds.N/A92%30.05 "Hg22 mi
5:00 PM43 °FHeavy rain. Low clouds.N/A89%30.06 "Hg7 mi
4:00 PM44 °FLight rain. Low clouds.N/A91%30.04 "Hg12 mi
3:00 PM44 °FLight rain. Low clouds.N/A91%30.04 "Hg16 mi
2:00 PM44 °FLight rain. Low clouds.N/A90%30.05 "Hg25 mi
1:00 PM43 °FLight rain. Low clouds.N/A91%30.05 "Hg16 mi
12:00 PM43 °FLight rain. Low clouds.N/A92%30.06 "Hg11 mi
11:00 AM42 °FLight rain. Low clouds.N/A90%30.06 "Hg22 mi
10:00 AM42 °FLight rain. Low clouds.N/A92%30.06 "Hg14 mi
9:00 AM42 °FLight rain. Low clouds.N/A92%30.06 "Hg11 mi
8:00 AM41 °FLight rain. Low clouds.N/A93%30.05 "Hg6 mi
7:00 AM42 °FHeavy rain. Low clouds.N/A93%30.04 "Hg7 mi
6:00 AM44 °FHeavy rain. Low clouds.N/A95%30.02 "Hg9 mi
5:00 AM45 °FHeavy rain. Low clouds.N/A94%30.02 "Hg6 mi
4:00 AM45 °FLight rain. Low clouds.N/A95%30.03 "Hg6 mi
3:00 AM45 °FLight rain. Overcast.N/A93%30.05 "Hg8 mi
2:00 AM45 °FHeavy rain. Overcast.N/A94%30.07 "Hg5 mi
1:00 AM46 °FHeavy rain. Low clouds.N/A93%30.06 "Hg6 mi
12:00 AM46 °FHeavy rain. Overcast.N/A92%30.07 "Hg5 mi
11:00 PM
Wed, Oct 19
46 °FHeavy rain. Overcast.N/A92%30.07 "Hg6 mi
10:00 PM46 °FHeavy rain. Overcast.N/A92%30.08 "Hg4 mi
9:00 PM46 °FLight rain. Overcast.N/A92%30.07 "Hg7 mi
Weather by CustomWeather, © 2016

See weather overviewHow to use our weather pages